QPF
0.00 0.00 0.00 0.00 0.00 0.00 0.00 0.00 0.00 0.00 0.00 0.00 0.00 0.00 0.00 0.00 0.00 0.00 0.00 0.00 0.00 0.00 0.01 0.01 0.01 0.02 0.01 0.01 0.02 0.04 0.03 0.03 0.02 0.02 0.02 0.03 0.04 0.04 0.05 0.05 0.05 0.07 0.06 0.06
0.00 0.00 0.00 0.00 0.00 0.00 0.00 0.00 0.00 0.00 0.00 0.00 0.00 0.00 0.00 0.00 0.00 0.00 0.00 0.00 0.00 0.00 0.01 0.01 0.01 0.01 0.01 0.01 0.02 0.03 0.05 0.05 0.05 0.04 0.04 0.04 0.04 0.05 0.06 0.06 0.06 0.07 0.07 0.07
0.00 0.00 0.00 0.00 0.00 0.00 0.00 0.00 0.00 0.00 0.00 0.00 0.00 0.00 0.00 0.00 0.00 0.00 0.00 0.01 0.01 0.00 0.01 0.01 0.01 0.00 0.01 0.01 0.01 0.02 0.03 0.04 0.04 0.04 0.06 0.07 0.06 0.06 0.05 0.05 0.05 0.07 0.08 0.08
0.00 0.00 0.00 0.00 0.00 0.00 0.00 0.00 0.00 0.00 0.00 0.00 0.00 0.00 0.00 0.00 0.00 0.00 0.00 0.00 0.00 0.00 0.00 0.00 0.00 0.01 0.01 0.01 0.01 0.02 0.02 0.03 0.05 0.06 0.07 0.07 0.07 0.06 0.04 0.03 0.04 0.05 0.06 0.06
0.00 0.00 0.00 0.00 0.00 0.00 0.00 0.00 0.00 0.00 0.00 0.00 0.00 0.00 0.00 0.00 0.00 0.00 0.00 0.00 0.00 0.00 0.00 0.00 0.00 0.01 0.01 0.01 0.01 0.01 0.02 0.03 0.05 0.05 0.05 0.04 0.05 0.05 0.04 0.04 0.04 0.03 0.04 0.04
0.00 0.00 0.00 0.00 0.00 0.00 0.00 0.00 0.00 0.00 0.00 0.00 0.00 0.00 0.01 0.01 0.00 0.00 0.00 0.00 0.00 0.00 0.00 0.00 0.00 0.01 0.01 0.02 0.02 0.02 0.03 0.03 0.05 0.05 0.04 0.05 0.05 0.05 0.05 0.04 0.04 0.04 0.04 0.04
0.00 0.00 0.00 0.00 0.00 0.00 0.00 0.01 0.00 0.00 0.00 0.00 0.00 0.00 0.00 0.00 0.00 0.00 0.00 0.00 0.00 0.01 0.01 0.01 0.01 0.01 0.01 0.02 0.03 0.03 0.04 0.05 0.06 0.06 0.06 0.06 0.06 0.05 0.04 0.04 0.04 0.04 0.04 0.04
0.00 0.00 0.01 0.00 0.00 0.01 0.01 0.00 0.00 0.01 0.01 0.00 0.01 0.01 0.00 0.00 0.00 0.00 0.00 0.00 0.01 0.01 0.01 0.01 0.01 0.01 0.01 0.02 0.02 0.03 0.04 0.05 0.06 0.07 0.07 0.07 0.07 0.07 0.06 0.06 0.05 0.04 0.04 0.03
0.00 0.01 0.01 0.00 0.00 0.00 0.00 0.00 0.00 0.00 0.01 0.01 0.00 0.00 0.00 0.00 0.00 0.00 0.00 0.01 0.01 0.01 0.01 0.01 0.01 0.01 0.02 0.02 0.03 0.04 0.04 0.07 0.09 0.10 0.11 0.12 0.12 0.11 0.10 0.09 0.07 0.05 0.04 0.04
0.02 0.01 0.01 0.00 0.00 0.00 0.00 0.00 0.01 0.00 0.00 0.00 0.00 0.00 0.00 0.00 0.00 0.01 0.00 0.00 0.00 0.00 0.01 0.01 0.01 0.01 0.02 0.03 0.05 0.06 0.06 0.07 0.07 0.09 0.12 0.15 0.17 0.16 0.14 0.12 0.10 0.09 0.07 0.05
0.03 0.02 0.01 0.01 0.00 0.00 0.00 0.01 0.01 0.00 0.00 0.00 0.00 0.01 0.01 0.01 0.00 0.01 0.00 0.00 0.00 0.00 0.01 0.01 0.01 0.01 0.01 0.02 0.04 0.05 0.07 0.08 0.08 0.10 0.13 0.14 0.15 0.14 0.13 0.12 0.10 0.09 0.07 0.06
0.04 0.04 0.02 0.01 0.00 0.00 0.00 0.00 0.00 0.00 0.00 0.01 0.01 0.02 0.03 0.02 0.01 0.01 0.00 0.00 0.01 0.01 0.01 0.02 0.01 0.01 0.02 0.02 0.03 0.03 0.05 0.08 0.09 0.10 0.11 0.11 0.11 0.10 0.10 0.10 0.10 0.10 0.09 0.07
0.03 0.03 0.01 0.01 0.00 0.01 0.01 0.00 0.00 0.00 0.01 0.02 0.01 0.01 0.02 0.02 0.01 0.01 0.01 0.01 0.01 0.01 0.01 0.02 0.02 0.02 0.03 0.03 0.04 0.04 0.05 0.07 0.09 0.09 0.09 0.08 0.09 0.08 0.08 0.07 0.06 0.06 0.06 0.07
0.01 0.02 0.02 0.01 0.01 0.01 0.01 0.01 0.01 0.01 0.01 0.02 0.01 0.02 0.02 0.01 0.01 0.02 0.02 0.01 0.01 0.01 0.01 0.01 0.02 0.02 0.03 0.03 0.03 0.04 0.05 0.06 0.06 0.07 0.08 0.08 0.07 0.06 0.06 0.06 0.05 0.04 0.04 0.04
0.01 0.02 0.03 0.02 0.01 0.01 0.01 0.01 0.01 0.01 0.01 0.01 0.02 0.02 0.02 0.02 0.02 0.02 0.02 0.02 0.03 0.03 0.02 0.03 0.03 0.04 0.04 0.03 0.03 0.04 0.04 0.06 0.08 0.06 0.06 0.06 0.05 0.05 0.04 0.04 0.04 0.03 0.03 0.03
0.00 0.01 0.02 0.02 0.02 0.01 0.01 0.02 0.01 0.02 0.02 0.02 0.02 0.02 0.03 0.04 0.03 0.03 0.02 0.04 0.07 0.08 0.06 0.05 0.06 0.06 0.05 0.05 0.05 0.04 0.04 0.04 0.05 0.07 0.07 0.06 0.05 0.04 0.04 0.04 0.04 0.04 0.03 0.04
0.02 0.02 0.02 0.02 0.02 0.02 0.02 0.02 0.02 0.02 0.02 0.02 0.02 0.03 0.04 0.06 0.05 0.05 0.05 0.07 0.09 0.12 0.10 0.08 0.07 0.07 0.08 0.08 0.08 0.06 0.05 0.05 0.05 0.06 0.08 0.08 0.06 0.07 0.07 0.06 0.05 0.05 0.04 0.04
0.02 0.02 0.02 0.03 0.03 0.04 0.03 0.02 0.02 0.02 0.02 0.03 0.04 0.04 0.05 0.07 0.07 0.08 0.09 0.09 0.11 0.15 0.15 0.14 0.13 0.11 0.09 0.08 0.09 0.10 0.07 0.05 0.06 0.06 0.09 0.08 0.08 0.08 0.09 0.08 0.08 0.08 0.06 0.05
0.01 0.01 0.02 0.02 0.03 0.05 0.05 0.03 0.03 0.04 0.04 0.05 0.07 0.07 0.07 0.10 0.09 0.08 0.07 0.07 0.08 0.12 0.15 0.15 0.15 0.14 0.11 0.09 0.11 0.12 0.09 0.07 0.06 0.06 0.06 0.07 0.07 0.07 0.08 0.10 0.10 0.09 0.08 0.07
0.02 0.02 0.02 0.03 0.05 0.06 0.07 0.05 0.05 0.06 0.06 0.08 0.10 0.10 0.09 0.08 0.08 0.07 0.07 0.07 0.06 0.08 0.11 0.12 0.13 0.15 0.12 0.09 0.09 0.09 0.08 0.09 0.09 0.07 0.07 0.06 0.06 0.06 0.07 0.08 0.09 0.08 0.07 0.07
0.04 0.03 0.04 0.05 0.06 0.07 0.07 0.05 0.06 0.08 0.08 0.08 0.11 0.10 0.09 0.07 0.06 0.07 0.08 0.07 0.06 0.08 0.09 0.10 0.11 0.11 0.10 0.09 0.07 0.05 0.05 0.06 0.07 0.07 0.08 0.08 0.07 0.06 0.05 0.06 0.07 0.07 0.07 0.07
0.04 0.04 0.04 0.05 0.08 0.09 0.08 0.07 0.08 0.07 0.06 0.07 0.09 0.07 0.07 0.08 0.06 0.07 0.08 0.08 0.06 0.06 0.05 0.06 0.08 0.08 0.07 0.06 0.04 0.05 0.06 0.06 0.07 0.07 0.07 0.07 0.07 0.07 0.06 0.05 0.05 0.05 0.05 0.07
0.06 0.05 0.05 0.06 0.07 0.09 0.10 0.09 0.09 0.07 0.06 0.08 0.12 0.10 0.09 0.10 0.10 0.11 0.11 0.10 0.09 0.08 0.05 0.06 0.07 0.07 0.06 0.04 0.04 0.04 0.06 0.06 0.06 0.07 0.08 0.08 0.07 0.07 0.06 0.05 0.04 0.03 0.03 0.04
0.07 0.07 0.06 0.04 0.05 0.08 0.11 0.11 0.08 0.07 0.06 0.07 0.09 0.12 0.13 0.13 0.15 0.16 0.16 0.16 0.12 0.09 0.08 0.09 0.06 0.06 0.06 0.06 0.05 0.05 0.05 0.05 0.07 0.09 0.10 0.12 0.13 0.11 0.09 0.07 0.05 0.04 0.03 0.03
0.07 0.07 0.06 0.06 0.05 0.08 0.10 0.10 0.08 0.06 0.06 0.05 0.04 0.07 0.11 0.16 0.19 0.18 0.17 0.17 0.15 0.12 0.12 0.11 0.08 0.06 0.07 0.07 0.07 0.07 0.06 0.05 0.07 0.10 0.11 0.11 0.12 0.13 0.13 0.11 0.08 0.05 0.04 0.03
0.07 0.06 0.05 0.05 0.05 0.06 0.07 0.07 0.06 0.05 0.04 0.05 0.04 0.04 0.06 0.07 0.10 0.11 0.13 0.14 0.13 0.11 0.11 0.10 0.08 0.07 0.07 0.08 0.09 0.11 0.11 0.10 0.08 0.06 0.06 0.06 0.06 0.07 0.08 0.08 0.08 0.06 0.04 0.03
0.07 0.06 0.06 0.05 0.04 0.04 0.05 0.07 0.06 0.05 0.04 0.04 0.06 0.06 0.06 0.06 0.06 0.05 0.06 0.07 0.07 0.07 0.08 0.07 0.05 0.06 0.06 0.07 0.07 0.08 0.09 0.10 0.09 0.08 0.06 0.06 0.06 0.06 0.05 0.05 0.05 0.05 0.03 0.02
MSLP
1001.31 1001.51 1001.76 1002.06 1002.41 1002.76 1003.07 1003.29 1003.37 1003.30 1003.06 1002.68 1002.19 1001.66 1001.15 1000.72 1000.41 1000.23 1000.18 1000.26 1000.44 1000.69 1001.00 1001.36 1001.76 1002.23 1002.77 1003.38 1004.06 1004.79 1005.55 1006.28 1006.96 1007.56 1008.05 1008.43 1008.71 1008.91 1009.07 1009.22 1009.39 1009.57 1009.80 1010.04
1001.85 1001.99 1002.12 1002.28 1002.46 1002.66 1002.85 1003.02 1003.13 1003.17 1003.11 1002.96 1002.73 1002.44 1002.13 1001.82 1001.53 1001.29 1001.10 1000.97 1000.90 1000.88 1000.94 1001.07 1001.28 1001.60 1002.03 1002.57 1003.20 1003.91 1004.65 1005.39 1006.09 1006.72 1007.26 1007.70 1008.04 1008.31 1008.52 1008.71 1008.90 1009.09 1009.29 1009.50
1002.59 1002.70 1002.78 1002.84 1002.91 1003.00 1003.11 1003.25 1003.38 1003.50 1003.58 1003.61 1003.57 1003.46 1003.28 1003.05 1002.77 1002.46 1002.13 1001.80 1001.50 1001.25 1001.06 1000.97 1001.00 1001.15 1001.44 1001.87 1002.42 1003.06 1003.75 1004.45 1005.14 1005.77 1006.33 1006.81 1007.20 1007.53 1007.80 1008.03 1008.24 1008.43 1008.62 1008.80
1003.50 1003.62 1003.68 1003.70 1003.71 1003.73 1003.80 1003.91 1004.05 1004.22 1004.38 1004.51 1004.59 1004.58 1004.48 1004.29 1003.99 1003.62 1003.17 1002.70 1002.22 1001.78 1001.40 1001.13 1000.99 1000.99 1001.14 1001.44 1001.87 1002.40 1002.99 1003.61 1004.24 1004.83 1005.38 1005.87 1006.29 1006.66 1006.97 1007.24 1007.47 1007.67 1007.85 1008.01
1004.52 1004.66 1004.73 1004.75 1004.74 1004.74 1004.77 1004.85 1004.98 1005.14 1005.33 1005.50 1005.62 1005.65 1005.58 1005.39 1005.08 1004.66 1004.15 1003.59 1003.01 1002.45 1001.97 1001.58 1001.31 1001.19 1001.22 1001.39 1001.68 1002.07 1002.53 1003.04 1003.56 1004.08 1004.58 1005.05 1005.47 1005.86 1006.20 1006.49 1006.75 1006.96 1007.13 1007.26
1005.55 1005.73 1005.83 1005.87 1005.86 1005.84 1005.84 1005.89 1005.98 1006.11 1006.26 1006.41 1006.51 1006.54 1006.47 1006.27 1005.96 1005.53 1005.01 1004.43 1003.83 1003.25 1002.73 1002.30 1001.98 1001.78 1001.71 1001.77 1001.93 1002.17 1002.49 1002.85 1003.25 1003.66 1004.08 1004.50 1004.90 1005.28 1005.63 1005.95 1006.21 1006.43 1006.60 1006.72
1006.51 1006.73 1006.86 1006.92 1006.92 1006.89 1006.87 1006.86 1006.90 1006.96 1007.05 1007.13 1007.18 1007.17 1007.07 1006.88 1006.57 1006.18 1005.70 1005.17 1004.63 1004.11 1003.64 1003.23 1002.92 1002.70 1002.58 1002.55 1002.60 1002.71 1002.88 1003.10 1003.36 1003.66 1003.98 1004.33 1004.69 1005.05 1005.40 1005.72 1006.00 1006.23 1006.40 1006.52
1007.35 1007.58 1007.73 1007.81 1007.82 1007.78 1007.72 1007.67 1007.63 1007.61 1007.61 1007.61 1007.59 1007.52 1007.40 1007.21 1006.94 1006.61 1006.22 1005.80 1005.39 1004.98 1004.62 1004.30 1004.05 1003.86 1003.72 1003.64 1003.60 1003.61 1003.65 1003.74 1003.87 1004.04 1004.27 1004.55 1004.86 1005.19 1005.53 1005.86 1006.15 1006.39 1006.57 1006.69
1008.03 1008.26 1008.42 1008.49 1008.50 1008.45 1008.36 1008.25 1008.14 1008.04 1007.95 1007.86 1007.76 1007.65 1007.50 1007.32 1007.11 1006.86 1006.60 1006.32 1006.05 1005.80 1005.58 1005.39 1005.23 1005.09 1004.97 1004.87 1004.78 1004.70 1004.65 1004.62 1004.65 1004.72 1004.87 1005.07 1005.33 1005.64 1005.97 1006.29 1006.59 1006.85 1007.04 1007.17
1008.58 1008.78 1008.92 1008.99 1008.98 1008.91 1008.79 1008.63 1008.46 1008.28 1008.11 1007.94 1007.78 1007.63 1007.48 1007.32 1007.17 1007.01 1006.87 1006.74 1006.63 1006.53 1006.45 1006.39 1006.32 1006.25 1006.16 1006.06 1005.94 1005.81 1005.68 1005.59 1005.53 1005.53 1005.60 1005.75 1005.97 1006.25 1006.56 1006.89 1007.20 1007.46 1007.67 1007.80
1009.02 1009.18 1009.28 1009.32 1009.29 1009.20 1009.05 1008.85 1008.63 1008.40 1008.18 1007.96 1007.76 1007.58 1007.43 1007.30 1007.21 1007.14 1007.10 1007.09 1007.11 1007.14 1007.18 1007.21 1007.23 1007.21 1007.15 1007.05 1006.92 1006.76 1006.59 1006.44 1006.33 1006.27 1006.30 1006.41 1006.60 1006.85 1007.15 1007.47 1007.78 1008.05 1008.26 1008.40
1009.41 1009.50 1009.55 1009.56 1009.50 1009.39 1009.22 1009.00 1008.76 1008.50 1008.24 1008.00 1007.78 1007.60 1007.46 1007.37 1007.32 1007.31 1007.35 1007.43 1007.53 1007.64 1007.75 1007.84 1007.90 1007.91 1007.87 1007.77 1007.62 1007.44 1007.25 1007.07 1006.92 1006.84 1006.83 1006.91 1007.07 1007.30 1007.58 1007.88 1008.18 1008.44 1008.65 1008.78
1009.77 1009.79 1009.79 1009.75 1009.67 1009.53 1009.35 1009.13 1008.89 1008.63 1008.37 1008.13 1007.92 1007.75 1007.63 1007.57 1007.56 1007.59 1007.68 1007.79 1007.93 1008.08 1008.21 1008.31 1008.37 1008.38 1008.32 1008.21 1008.04 1007.85 1007.64 1007.44 1007.28 1007.18 1007.15 1007.20 1007.34 1007.54 1007.79 1008.06 1008.33 1008.58 1008.76 1008.88
1010.12 1010.07 1010.02 1009.94 1009.83 1009.69 1009.51 1009.30 1009.07 1008.83 1008.60 1008.39 1008.20 1008.07 1007.98 1007.94 1007.95 1008.01 1008.11 1008.23 1008.37 1008.50 1008.61 1008.69 1008.71 1008.68 1008.60 1008.45 1008.27 1008.05 1007.83 1007.63 1007.46 1007.35 1007.30 1007.33 1007.43 1007.60 1007.81 1008.04 1008.27 1008.48 1008.63 1008.73
1010.47 1010.37 1010.26 1010.15 1010.02 1009.87 1009.70 1009.52 1009.32 1009.12 1008.93 1008.77 1008.63 1008.53 1008.48 1008.47 1008.50 1008.57 1008.66 1008.77 1008.88 1008.97 1009.03 1009.05 1009.02 1008.94 1008.80 1008.63 1008.41 1008.19 1007.96 1007.75 1007.58 1007.46 1007.40 1007.41 1007.48 1007.60 1007.76 1007.94 1008.11 1008.27 1008.39 1008.45
1010.82 1010.67 1010.52 1010.39 1010.25 1010.11 1009.96 1009.80 1009.65 1009.50 1009.37 1009.25 1009.17 1009.12 1009.11 1009.13 1009.17 1009.24 1009.32 1009.40 1009.47 1009.51 1009.51 1009.46 1009.37 1009.23 1009.06 1008.84 1008.61 1008.37 1008.14 1007.94 1007.77 1007.65 1007.58 1007.56 1007.59 1007.67 1007.77 1007.89 1008.01 1008.11 1008.19 1008.22
1011.17 1010.98 1010.82 1010.67 1010.53 1010.41 1010.28 1010.17 1010.06 1009.97 1009.89 1009.83 1009.79 1009.79 1009.81 1009.86 1009.92 1009.99 1010.05 1010.10 1010.13 1010.11 1010.06 1009.96 1009.82 1009.64 1009.42 1009.19 1008.94 1008.70 1008.48 1008.28 1008.12 1008.00 1007.92 1007.89 1007.88 1007.91 1007.96 1008.02 1008.07 1008.13 1008.16 1008.16
1011.52 1011.33 1011.16 1011.01 1010.89 1010.79 1010.70 1010.62 1010.56 1010.51 1010.47 1010.46 1010.47 1010.50 1010.55 1010.61 1010.68 1010.74 1010.79 1010.82 1010.81 1010.76 1010.67 1010.53 1010.35 1010.14 1009.91 1009.67 1009.43 1009.20 1008.99 1008.81 1008.67 1008.55 1008.47 1008.42 1008.39 1008.37 1008.37 1008.37 1008.37 1008.37 1008.36 1008.35
1011.90 1011.71 1011.56 1011.44 1011.34 1011.26 1011.21 1011.16 1011.13 1011.11 1011.11 1011.12 1011.15 1011.19 1011.26 1011.32 1011.39 1011.44 1011.48 1011.49 1011.46 1011.38 1011.26 1011.11 1010.91 1010.70 1010.47 1010.23 1010.01 1009.80 1009.62 1009.47 1009.35 1009.25 1009.17 1009.11 1009.05 1009.00 1008.96 1008.91 1008.86 1008.82 1008.77 1008.74
1012.31 1012.16 1012.04 1011.95 1011.88 1011.83 1011.79 1011.77 1011.76 1011.75 1011.76 1011.77 1011.80 1011.84 1011.89 1011.94 1011.99 1012.03 1012.05 1012.03 1011.99 1011.90 1011.78 1011.61 1011.43 1011.22 1011.00 1010.79 1010.60 1010.42 1010.27 1010.15 1010.05 1009.97 1009.90 1009.83 1009.76 1009.69 1009.61 1009.52 1009.43 1009.35 1009.27 1009.21
1012.77 1012.66 1012.57 1012.51 1012.47 1012.45 1012.43 1012.42 1012.40 1012.39 1012.38 1012.38 1012.38 1012.39 1012.40 1012.43 1012.44 1012.45 1012.45 1012.42 1012.35 1012.26 1012.14 1011.98 1011.81 1011.62 1011.43 1011.24 1011.08 1010.94 1010.82 1010.73 1010.65 1010.59 1010.53 1010.47 1010.39 1010.31 1010.20 1010.08 1009.96 1009.84 1009.73 1009.64
1013.23 1013.16 1013.11 1013.09 1013.07 1013.06 1013.05 1013.03 1013.00 1012.96 1012.92 1012.88 1012.84 1012.80 1012.77 1012.74 1012.72 1012.69 1012.66 1012.60 1012.53 1012.43 1012.31 1012.17 1012.01 1011.84 1011.68 1011.52 1011.39 1011.27 1011.19 1011.12 1011.06 1011.02 1010.97 1010.92 1010.84 1010.75 1010.63 1010.49 1010.34 1010.18 1010.04 1009.92
1013.66 1013.62 1013.60 1013.60 1013.60 1013.59 1013.57 1013.53 1013.48 1013.41 1013.32 1013.23 1013.14 1013.04 1012.96 1012.88 1012.81 1012.75 1012.68 1012.61 1012.52 1012.42 1012.30 1012.17 1012.03 1011.89 1011.74 1011.61 1011.50 1011.41 1011.34 1011.29 1011.25 1011.23 1011.19 1011.15 1011.08 1010.98 1010.86 1010.71 1010.54 1010.36 1010.18 1010.02
1013.98 1013.96 1013.96 1013.97 1013.97 1013.95 1013.92 1013.86 1013.78 1013.67 1013.54 1013.40 1013.26 1013.11 1012.98 1012.86 1012.75 1012.65 1012.56 1012.47 1012.38 1012.28 1012.17 1012.05 1011.92 1011.79 1011.66 1011.55 1011.45 1011.37 1011.31 1011.28 1011.25 1011.24 1011.22 1011.19 1011.13 1011.05 1010.94 1010.79 1010.61 1010.42 1010.21 1010.01
1014.13 1014.13 1014.13 1014.13 1014.12 1014.09 1014.04 1013.96 1013.85 1013.72 1013.56 1013.39 1013.21 1013.03 1012.87 1012.71 1012.58 1012.46 1012.36 1012.26 1012.17 1012.07 1011.97 1011.86 1011.74 1011.62 1011.51 1011.40 1011.31 1011.23 1011.18 1011.15 1011.14 1011.14 1011.14 1011.13 1011.10 1011.04 1010.95 1010.82 1010.65 1010.45 1010.23 1010.00
1014.10 1014.08 1014.07 1014.06 1014.04 1014.00 1013.93 1013.84 1013.72 1013.57 1013.40 1013.21 1013.02 1012.84 1012.67 1012.51 1012.37 1012.25 1012.15 1012.06 1011.98 1011.89 1011.79 1011.70 1011.59 1011.47 1011.36 1011.26 1011.16 1011.09 1011.04 1011.01 1011.01 1011.02 1011.04 1011.06 1011.07 1011.05 1010.99 1010.90 1010.76 1010.59 1010.37 1010.13
1013.87 1013.84 1013.81 1013.79 1013.75 1013.71 1013.64 1013.54 1013.43 1013.29 1013.13 1012.96 1012.79 1012.62 1012.46 1012.32 1012.20 1012.10 1012.01 1011.94 1011.87 1011.79 1011.71 1011.62 1011.51 1011.40 1011.29 1011.18 1011.08 1011.00 1010.95 1010.93 1010.93 1010.96 1011.01 1011.07 1011.11 1011.15 1011.15 1011.11 1011.02 1010.89 1010.70 1010.46
Thickness
5784 5801 5809 5810 5814 5822 5818 5816 5806 5809 5811 5813 5821 5822 5822 5825 5826 5827 5828 5829 5829 5827 5826 5826 5825 5824 5823 5821 5820 5817 5812 5808 5806 5804 5801 5797 5793 5791 5788 5785 5782 5779 5775 5771
5765 5787 5796 5798 5808 5814 5815 5817 5812 5809 5806 5817 5820 5819 5815 5815 5814 5811 5814 5816 5818 5819 5818 5817 5817 5816 5815 5814 5813 5812 5808 5804 5803 5801 5797 5794 5791 5788 5784 5781 5778 5775 5771 5767
5742 5769 5777 5772 5794 5802 5806 5812 5808 5795 5797 5806 5802 5801 5802 5805 5805 5803 5803 5803 5806 5809 5810 5811 5811 5811 5809 5808 5808 5805 5803 5801 5799 5796 5793 5790 5788 5783 5779 5776 5773 5769 5766 5763
5733 5741 5730 5772 5805 5806 5800 5803 5805 5800 5796 5796 5793 5794 5796 5798 5796 5796 5797 5797 5797 5800 5802 5804 5805 5804 5803 5803 5801 5798 5796 5795 5794 5790 5786 5784 5781 5778 5775 5771 5768 5765 5761 5758
5720 5724 5740 5768 5787 5792 5785 5781 5794 5789 5788 5789 5789 5785 5782 5787 5788 5789 5790 5790 5791 5793 5794 5795 5795 5794 5793 5792 5792 5790 5788 5787 5786 5784 5780 5777 5774 5771 5769 5765 5762 5759 5756 5752
5713 5712 5720 5747 5775 5787 5778 5758 5776 5777 5774 5776 5774 5760 5760 5774 5777 5779 5780 5781 5780 5782 5783 5783 5784 5785 5782 5781 5780 5780 5781 5780 5779 5777 5774 5770 5767 5765 5762 5758 5754 5752 5748 5745
5704 5708 5725 5751 5765 5768 5739 5733 5757 5763 5763 5762 5757 5754 5760 5767 5766 5767 5767 5769 5770 5770 5769 5770 5773 5773 5770 5770 5769 5772 5773 5772 5771 5769 5767 5765 5761 5758 5755 5751 5747 5743 5739 5737
5702 5700 5706 5737 5744 5731 5726 5742 5746 5747 5749 5748 5746 5749 5753 5754 5753 5753 5753 5755 5756 5756 5756 5759 5760 5760 5758 5758 5761 5763 5762 5761 5759 5758 5758 5757 5752 5748 5745 5741 5738 5735 5732 5729
5701 5701 5713 5725 5725 5727 5731 5730 5734 5737 5737 5737 5736 5737 5739 5740 5740 5741 5741 5741 5743 5743 5743 5745 5747 5747 5745 5747 5750 5751 5750 5748 5747 5746 5746 5746 5741 5736 5733 5729 5727 5726 5723 5720
5692 5699 5707 5713 5717 5720 5721 5720 5725 5728 5730 5729 5726 5727 5727 5727 5727 5727 5728 5728 5729 5729 5728 5729 5732 5734 5734 5736 5738 5737 5735 5735 5735 5734 5734 5734 5731 5728 5724 5720 5719 5717 5714 5710
5682 5690 5696 5700 5703 5706 5709 5713 5715 5717 5718 5717 5716 5715 5715 5714 5714 5714 5715 5716 5716 5715 5715 5717 5719 5720 5722 5723 5723 5722 5722 5722 5722 5723 5722 5720 5718 5715 5714 5712 5711 5708 5705 5703
5669 5678 5679 5682 5693 5698 5697 5698 5701 5703 5703 5705 5705 5703 5701 5700 5702 5703 5703 5703 5702 5703 5703 5705 5706 5707 5710 5711 5711 5709 5709 5710 5711 5712 5711 5709 5706 5703 5700 5700 5698 5696 5694 5691
5669 5673 5675 5678 5684 5687 5688 5689 5691 5692 5692 5692 5693 5691 5690 5689 5690 5691 5690 5690 5690 5691 5692 5693 5694 5695 5697 5698 5698 5698 5697 5698 5700 5700 5700 5699 5697 5695 5691 5687 5685 5683 5681 5679
5665 5665 5663 5667 5671 5676 5679 5680 5681 5681 5681 5682 5681 5680 5679 5679 5679 5678 5678 5678 5679 5680 5680 5681 5682 5684 5686 5686 5686 5686 5687 5688 5689 5689 5689 5689 5688 5687 5685 5681 5677 5673 5668 5666
5655 5657 5656 5660 5664 5666 5668 5668 5667 5667 5668 5669 5670 5669 5668 5666 5666 5666 5667 5668 5668 5668 5668 5669 5669 5671 5673 5674 5674 5675 5676 5677 5677 5678 5678 5679 5679 5678 5677 5674 5670 5665 5660 5656
5646 5649 5651 5651 5652 5654 5656 5656 5655 5656 5657 5657 5657 5657 5657 5656 5655 5656 5657 5657 5656 5656 5657 5657 5657 5659 5662 5663 5663 5664 5666 5666 5666 5667 5667 5667 5666 5666 5665 5663 5660 5656 5653 5649
5635 5635 5638 5640 5643 5645 5646 5646 5646 5647 5647 5646 5646 5647 5646 5645 5645 5645 5645 5646 5646 5646 5647 5647 5648 5650 5651 5652 5653 5653 5655 5656 5655 5656 5657 5657 5657 5655 5654 5653 5650 5647 5645 5642
5634 5634 5635 5636 5637 5638 5639 5640 5640 5639 5638 5638 5637 5637 5636 5635 5634 5635 5635 5636 5636 5636 5637 5637 5639 5641 5642 5642 5642 5643 5644 5646 5647 5646 5646 5646 5646 5645 5644 5643 5641 5639 5636 5631
5630 5630 5631 5632 5632 5631 5632 5632 5631 5631 5631 5630 5627 5627 5627 5627 5627 5627 5627 5626 5626 5625 5627 5629 5630 5630 5632 5632 5632 5634 5635 5636 5637 5637 5636 5635 5635 5636 5635 5633 5632 5630 5627 5622
5625 5626 5626 5626 5626 5625 5623 5623 5624 5623 5623 5622 5621 5620 5619 5619 5619 5620 5620 5619 5619 5619 5620 5621 5620 5621 5623 5624 5625 5626 5626 5627 5627 5627 5627 5626 5626 5626 5625 5623 5622 5619 5616 5613
5619 5619 5619 5619 5618 5617 5616 5617 5616 5615 5615 5615 5613 5612 5612 5612 5613 5613 5614 5613 5614 5614 5614 5613 5614 5614 5616 5616 5617 5618 5619 5619 5618 5618 5618 5618 5617 5616 5614 5613 5611 5609 5606 5603
5612 5613 5613 5613 5612 5611 5611 5611 5610 5609 5609 5608 5607 5606 5605 5605 5607 5607 5609 5608 5608 5607 5607 5608 5609 5608 5609 5608 5611 5611 5611 5611 5610 5610 5610 5609 5608 5606 5605 5604 5602 5600 5598 5595
5607 5607 5607 5607 5607 5606 5607 5606 5606 5605 5604 5603 5602 5601 5601 5601 5602 5601 5601 5602 5603 5601 5602 5603 5602 5601 5600 5602 5603 5604 5603 5603 5602 5602 5602 5602 5601 5599 5598 5597 5595 5592 5590 5587
5601 5602 5602 5603 5603 5602 5601 5601 5602 5601 5601 5601 5600 5600 5599 5598 5598 5599 5598 5596 5595 5595 5596 5594 5594 5594 5593 5596 5597 5597 5597 5596 5595 5595 5595 5594 5593 5592 5590 5589 5586 5584 5581 5579
5597 5598 5599 5599 5598 5598 5599 5599 5599 5598 5597 5597 5597 5597 5597 5596 5594 5594 5593 5592 5590 5589 5590 5589 5589 5588 5590 5591 5591 5591 5590 5589 5589 5588 5587 5586 5585 5585 5583 5581 5579 5576 5574 5571
5594 5594 5595 5595 5595 5594 5596 5596 5594 5593 5593 5592 5592 5593 5593 5593 5592 5591 5590 5589 5588 5586 5586 5586 5585 5584 5585 5586 5585 5585 5584 5584 5582 5581 5580 5579 5578 5576 5574 5572 5570 5569 5567 5564
5592 5592 5591 5591 5593 5593 5593 5592 5590 5589 5588 5587 5587 5587 5587 5587 5587 5587 5586 5585 5585 5584 5582 5582 5582 5582 5582 5581 5581 5580 5579 5578 5577 5576 5574 5573 5570 5569 5566 5564 5563 5561 5558 5555